Погода в Бабарыкине

Россия / Томская область     56°33′06″N   83°36′38″E
темп.,
°C
ветер,
м/с
пор.,
м/с
влажн.,
%
обл.,
%
осадки,
мм/ч
давл.,
гПа
погр.,
м
10 мая, пн
пн1001:00+5св38705 0.0 1024168
04:00+3св36835 0.0 1024121
07:00+4св38785 0.0 1025277
10:00+9св46545 0.0 1025994
13:00+13св464699 0.0 10241774
16:00+13св5646100 0.0 10231729
19:00+12ссв4647100 0.0 10231441
22:00+10св4863100 0.0 1022427
11 мая, вт
вт1101:00+6ссв397765 0.0 1022190
04:00+5ссв398081 0.0 1021203
07:00+7ссв387956 0.0 1021262
10:00+12ссв585878 0.0 1021593
13:00+16св674192 0.2 10202080
16:00+16ссв664099 0.0 10192106
19:00+14ссв675598 0.3 10201258
22:00+10ссв411665 0.3 1022372
12 мая, ср
ср1201:00+8с411735 0.3 1022298
04:00+6с39805 0.0 1021230
07:00+7с37765 0.0 1022213
10:00+13ссв34505 0.0 1021646
13:00+17ссв323930 0.0 10201883
16:00+17ссз223699 0.0 10192127
19:00+15зсз2344100 0.0 101982
22:00+14з2243100 0.0 101922
13 мая, чт
чт1301:00+12з1151100 0.0 101814
04:00+11зюз115698 0.0 101816
07:00+10с116198 0.0 101948
10:00+14ююв014945 0.0 1018483
13:00+19ююз233599 0.0 10172527
16:00+17ссз334417 0.1 1017834
19:00+16з235280 0.1 1016615
22:00+13сз3868100 0.3 1016380
14 мая, пт
пт1401:00+10сз2378100 0.3 1015106
04:00+8зсз2481100 0.0 101491
07:00+9зсз4774100 0.0 1015860
10:00+9сз6107897 0.1 10151007
13:00+12ссз811345 0.2 10162097
16:00+12ссз710275 0.0 10182174
19:00+11ссз693059 0.0 10192113
22:00+7сз2343100 0.0 102144